1497034800.02,41786,22.31,74180.3,3.59,-27.83,-28.15,0,*7E
1497034801.28,41787,22.31,74180.8,3.57,-27.89,-28.21,0,*7C
1497034802.5,41788,22.31,74178.5,3.59,-27.71,-27.99,0,*76
1497034803.79,41789,22.31,74182.5,3.57,-27.61,-28.05,0,*72
1497034805.04,41790,22.31,74182.3,3.59,-27.39,-27.83,0,*78
1497034806.29,41791,22.31,74178.8,3.57,-27.35,-27.77,0,*70
1497034807.52,41792,22.31,74182.5,3.57,-27.51,-27.77,0,*71
1497034808.78,41793,22.31,74176.3,3.57,-27.67,-27.99,0,*75
1497034810.04,41794,22.31,74176.0,3.57,-27.67,-27.99,0,*72
1497034811.26,41795,22.31,74178.8,3.59,-27.71,-27.99,0,*7A
1497034812.54,41796,22.31,74178.5,3.57,-27.83,-28.05,0,*70
1497034813.79,41797,22.31,74180.3,3.59,-27.83,-28.25,0,*7D
1497034815.04,41798,22.31,74180.8,3.57,-27.93,-28.47,0,*79
1497034816.3,41799,22.31,74180.0,3.57,-27.83,-28.31,0,*78
1497034817.52,41800,22.31,74180.3,3.59,-27.83,-28.15,0,*7F
1497034818.81,41801,22.25,74176.5,3.57,-27.61,-28.05,0,*7D
1497034820.05,41802,22.31,74176.5,3.57,-27.67,-27.89,0,*73
1497034821.28,41803,22.31,74178.0,3.57,-27.51,-27.89,0,*77
1497034822.47,41804,22.31,74178.8,3.59,-27.55,-27.93,0,*71
1497034823.76,41805,22.31,74172.0,3.57,-27.61,-27.99,0,*73
1497034824.99,41806,22.25,74178.0,3.59,-27.45,-27.93,0,*72
1497034826.22,41807,22.25,74176.0,3.59,-27.61,-27.93,0,*75
1497034827.48,41808,22.31,74180.8,3.57,-27.67,-28.05,0,*72
1497034828.74,41809,22.31,74176.5,3.57,-27.67,-28.05,0,*73
1497034830.0,41810,22.31,74180.5,3.59,-27.61,-27.99,0,*79
1497034831.26,41811,22.31,74178.0,3.59,-27.61,-27.99,0,*78
1497034832.52,41812,22.25,74178.5,3.59,-27.61,-27.99,0,*7B
1497034833.8,41813,22.31,74176.5,3.57,-27.83,-28.05,0,*72
1497034835.05,41814,22.31,74180.3,3.57,-27.77,-28.05,0,*7E
1497034836.31,41815,22.31,74178.8,3.57,-27.83,-28.15,0,*75
1497034837.56,41816,22.31,74178.8,3.57,-27.83,-28.15,0,*76
1497034838.82,41817,22.31,74178.8,3.57,-27.77,-28.21,0,*7B
1497034840.1,41818,22.31,74180.3,3.57,-27.83,-28.21,0,*7F
1497034841.33,41819,22.25,74178.0,3.59,-27.77,-28.25,0,*7F
1497034842.59,41820,22.31,74180.0,3.57,-27.77,-28.21,0,*7F
1497034843.85,41821,22.25,74178.8,3.57,-27.77,-28.05,0,*78
1497034845.08,41822,22.31,74178.0,3.57,-27.77,-28.15,0,*7A
1497034846.32,41823,22.25,74176.8,3.57,-27.77,-28.15,0,*7B
1497034847.58,41824,22.31,74180.0,3.57,-27.67,-28.05,0,*7C
1497034848.86,41825,22.31,74176.5,3.57,-27.61,-27.99,0,*71
1497034850.13,41826,22.25,74176.5,3.57,-27.61,-27.89,0,*73
1497034851.35,41827,22.31,74178.8,3.55,-27.45,-27.77,0,*77
1497034852.6,41828,22.31,74182.0,3.59,-27.45,-27.83,0,*7F
1497034853.81,41829,22.25,74176.5,3.55,-27.51,-27.89,0,*7D
1497034855.09,41830,22.31,74180.3,3.53,-27.39,-27.83,0,*77
1497034856.35,41831,22.25,74176.3,3.57,-27.29,-27.61,0,*7F
1497034857.62,41832,22.25,74176.3,3.57,-27.19,-27.61,0,*7F
1497034858.86,41833,22.31,74180.0,3.57,-27.29,-27.67,0,*7B
1497034860.09,41834,22.25,74178.8,3.57,-27.51,-27.89,0,*73
1497034861.35,41835,22.25,74176.0,3.57,-27.61,-27.89,0,*71
1497034862.6,41836,22.31,74180.8,3.55,-27.45,-27.83,0,*7C
1497034863.86,41837,22.31,74182.8,3.57,-27.67,-27.99,0,*74
1497034865.14,41838,22.25,74178.0,3.57,-27.83,-28.21,0,*7D
1497034866.4,41839,22.31,74178.8,3.57,-27.77,-28.21,0,*77
1497034867.65,41840,22.31,74182.8,3.55,-27.83,-28.21,0,*70
1497034868.89,41841,22.31,74182.8,3.55,-27.67,-28.05,0,*7D
1497034870.11,41842,22.25,74178.3,3.55,-27.83,-28.15,0,*75
1497034871.38,41843,22.31,74182.0,3.55,-27.61,-27.99,0,*73
1497034872.6,41844,22.31,74182.8,3.53,-27.55,-27.93,0,*7F
1497034873.81,41845,22.31,74182.0,3.55,-27.51,-27.89,0,*77
1497034875.04,41846,22.25,74182.3,3.55,-27.61,-27.89,0,*77
1497034876.24,41847,22.31,74180.8,3.55,-27.51,-27.89,0,*75
1497034877.48,41848,22.25,74182.3,3.55,-27.61,-27.89,0,*79
1497034878.7,41849,22.31,74182.3,3.55,-27.35,-27.77,0,*78
1497034879.95,41850,22.25,74180.0,3.53,-27.19,-27.67,0,*79
1497034881.2,41851,22.25,74180.5,3.53,-27.19,-27.67,0,*78
1497034882.46,41852,22.31,74182.5,3.55,-26.97,-27.45,0,*7A
1497034883.72,41853,22.25,74182.8,3.57,-26.97,-27.29,0,*73
1497034884.95,41854,22.25,74180.5,3.57,-26.87,-27.29,0,*75
1497034886.24,41855,22.25,74182.5,3.57,-26.97,-27.35,0,*78
1497034887.49,41856,22.25,74182.5,3.57,-27.03,-27.45,0,*70
1497034888.78,41857,22.31,74184.0,3.57,-26.97,-27.35,0,*7A
1497034890.03,41858,22.25,74180.8,3.57,-27.03,-27.35,0,*79
1497034891.26,41859,22.25,74182.3,3.57,-27.03,-27.51,0,*7A
1497034892.51,41860,22.25,74180.5,3.57,-27.19,-27.51,0,*7B
1497034893.7,41861,22.25,74178.8,3.59,-27.13,-27.55,0,*7A
1497034894.9,41862,22.25,74180.0,3.59,-27.13,-27.55,0,*79
1497034896.13,41863,22.31,74182.5,3.59,-27.07,-27.39,0,*77
1497034897.4,41864,22.25,74182.0,3.57,-27.19,-27.61,0,*7C
1497034898.65,41865,22.25,74180.3,3.59,-27.23,-27.61,0,*7A
1497034899.88,41866,22.25,74182.5,3.59,-27.23,-27.55,0,*7E
1497034901.1,41867,22.25,74180.5,3.59,-27.23,-27.55,0,*7F
1497034902.32,41868,22.25,74182.3,3.59,-27.13,-27.45,0,*72
1497034903.52,41869,22.25,74180.0,3.59,-27.07,-27.55,0,*77
1497034904.75,41870,22.31,74182.8,3.59,-27.29,-27.61,0,*74
1497034905.98,41871,22.25,74180.3,3.59,-27.29,-27.61,0,*75
1497034907.2,41872,22.25,74178.8,3.61,-27.03,-27.51,0,*76
1497034908.43,41873,22.25,74180.8,3.61,-27.07,-27.51,0,*73
1497034909.68,41874,22.25,74176.8,3.61,-27.23,-27.71,0,*70
1497034910.92,41875,22.25,74178.5,3.61,-27.39,-27.71,0,*7A
1497034912.17,41876,22.25,74180.3,3.61,-27.23,-27.55,0,*74
1497034913.41,41877,22.25,74176.5,3.61,-27.19,-27.55,0,*7C
1497034914.65,41878,22.25,74178.8,3.61,-27.19,-27.55,0,*73
1497034915.9,41879,22.25,74182.0,3.61,-27.39,-27.67,0,*71
1497034917.12,41880,22.25,74178.3,3.61,-27.55,-27.89,0,*7D
1497034918.32,41881,22.25,74176.0,3.63,-27.55,-27.89,0,*7E
1497034919.54,41882,22.25,74178.8,3.61,-27.55,-27.77,0,*7E
1497034920.79,41883,22.25,74180.0,3.61,-27.39,-27.71,0,*73
1497034922.04,41884,22.25,74182.5,3.61,-27.35,-27.67,0,*7F
1497034923.31,41885,22.25,74178.8,3.61,-27.19,-27.39,0,*7B
1497034924.56,41886,22.25,74182.5,3.61,-27.03,-27.35,0,*7F
1497034925.8,41887,22.25,74180.8,3.61,-26.87,-27.39,0,*7F
1497034927.03,41888,22.25,74178.8,3.61,-27.07,-27.51,0,*77
1497034928.23,41889,22.25,74182.8,3.63,-27.07,-27.51,0,*74
1497034929.45,41890,22.25,74182.8,3.63,-27.19,-27.67,0,*76
1497034930.69,41891,22.25,74176.0,3.61,-27.35,-27.71,0,*7C
1497034931.92,41892,22.25,74180.0,3.63,-27.35,-27.71,0,*7D
1497034933.13,41893,22.25,74180.5,3.63,-27.35,-27.77,0,*7A
1497034934.38,41894,22.25,74178.8,3.61,-27.71,-28.09,0,*79
1497034935.6,41895,22.25,74178.3,3.61,-27.71,-27.93,0,*74
1497034936.85,41896,22.25,74182.0,3.61,-27.55,-28.05,0,*71
1497034938.1,41897,22.25,74182.3,3.61,-27.71,-28.05,0,*76
1497034939.32,41898,22.25,74180.0,3.61,-27.55,-27.93,0,*7F
1497034940.58,41899,22.31,74186.8,3.61,-27.67,-28.05,0,*7F
1497034941.83,41900,22.25,74180.5,3.61,-27.71,-28.05,0,*79
1497034943.04,41901,22.25,74176.8,3.59,-27.77,-28.15,0,*74
1497034944.26,41902,22.25,74180.3,3.59,-27.61,-27.93,0,*71
1497034945.5,41903,22.25,74180.3,3.59,-27.61,-27.93,0,*70
1497034946.7,41904,22.25,74178.0,3.59,-27.29,-27.77,0,*71
1497034947.95,41905,22.25,74180.0,3.61,-27.35,-27.67,0,*77
1497034949.17,41906,22.25,74186.0,3.59,-27.07,-27.45,0,*7E
1497034950.39,41907,22.25,74182.3,3.59,-27.07,-27.45,0,*7F
1497034951.61,41908,22.25,74180.8,3.59,-27.07,-27.45,0,*70
1497034952.86,41909,22.25,74180.0,3.59,-27.23,-27.61,0,*71
1497034954.11,41910,22.25,74182.5,3.61,-27.19,-27.55,0,*7C
1497034955.35,41911,22.25,74180.5,3.61,-27.23,-27.55,0,*74
1497034956.6,41912,22.25,74182.5,3.61,-27.35,-27.67,0,*71
1497034957.82,41913,22.25,74182.3,3.61,-27.51,-27.89,0,*72
1497034959.07,41914,22.25,74184.3,3.61,-27.35,-27.67,0,*77
1497034960.32,41915,22.25,74182.3,3.61,-27.35,-27.67,0,*76
1497034961.56,41916,22.25,74184.0,3.61,-27.35,-27.71,0,*72
1497034962.81,41917,22.25,74180.8,3.61,-27.39,-27.71,0,*7F
1497034964.03,41918,22.25,74184.0,3.63,-27.19,-27.51,0,*72
1497034965.27,41919,22.25,74184.8,3.61,-27.19,-27.51,0,*71
1497034966.51,41920,22.25,74184.3,3.61,-27.19,-27.67,0,*7E
1497034967.75,41921,22.25,74182.5,3.61,-27.19,-27.51,0,*7A
1497034968.97,41922,22.25,74182.5,3.63,-27.23,-27.55,0,*76
1497034970.21,41923,22.25,74180.8,3.61,-27.19,-27.55,0,*7C
1497034971.43,41924,22.25,74186.0,3.63,-27.19,-27.55,0,*79
1497034972.65,41925,22.25,74182.5,3.63,-27.19,-27.55,0,*78
1497034973.9,41926,22.25,74186.0,3.61,-27.39,-27.89,0,*7A
1497034975.12,41927,22.25,74180.5,3.61,-27.51,-27.89,0,*75
1497034976.32,41928,22.25,74180.3,3.63,-27.55,-27.93,0,*77
1497034977.51,41929,22.25,74182.0,3.63,-27.55,-27.93,0,*76
1497034978.71,41930,22.25,74180.0,3.63,-27.67,-27.93,0,*7F
1497034979.94,41931,22.25,74180.3,3.61,-27.51,-27.89,0,*72
1497034981.14,41932,22.25,74180.3,3.63,-27.55,-27.89,0,*77
1497034982.36,41933,22.25,74184.5,3.61,-27.51,-27.89,0,*70
1497034983.56,41934,22.25,74180.0,3.63,-27.51,-27.77,0,*74
1497034984.78,41935,22.25,74184.8,3.61,-27.55,-27.93,0,*79
1497034986.0,41936,22.25,74184.3,3.61,-27.51,-27.77,0,*74
1497034987.22,41937,22.25,74182.8,3.61,-27.55,-27.89,0,*70
1497034988.44,41938,22.25,74182.3,3.61,-27.51,-27.77,0,*7A
1497034989.68,41939,22.25,74186.8,3.61,-27.35,-27.55,0,*79
1497034990.93,41940,22.25,74184.0,3.61,-27.39,-27.71,0,*7D
1497034992.16,41941,22.25,74186.8,3.63,-27.39,-27.67,0,*79
1497034993.4,41942,22.25,74186.3,3.61,-27.35,-27.71,0,*73
1497034994.65,41943,22.25,74186.3,3.61,-27.35,-27.67,0,*75
1497034995.87,41944,22.25,74182.5,3.61,-27.55,-27.89,0,*74
1497034997.09,41945,22.25,74178.8,3.61,-27.55,-27.93,0,*7E
1497034998.31,41946,22.25,74182.5,3.61,-27.51,-27.77,0,*73
1497034999.54,41947,22.25,74182.5,3.61,-27.55,-27.93,0,*7C
1497035000.76,41948,22.25,74180.8,3.61,-27.51,-27.89,0,*7C
1497035001.98,41949,22.25,74180.0,3.61,-27.55,-27.93,0,*72
1497035003.23,41950,22.25,74182.8,3.61,-27.55,-28.05,0,*7A
1497035004.48,41951,22.25,74180.5,3.61,-27.67,-28.05,0,*7A
1497035005.7,41952,22.25,74180.3,3.61,-27.55,-27.77,0,*72
1497035006.93,41953,22.25,74180.8,3.61,-27.55,-27.89,0,*72
1497035008.18,41954,22.25,74180.0,3.61,-27.39,-27.71,0,*78
1497035009.4,41955,22.25,74182.5,3.61,-27.51,-27.77,0,*71
1497035010.63,41956,22.25,74184.3,3.59,-27.61,-27.93,0,*70
1497035011.85,41957,22.25,74180.8,3.61,-27.51,-27.77,0,*73
1497035013.12,41958,22.25,74182.3,3.61,-27.35,-27.61,0,*79
1497035014.34,41959,22.25,74184.3,3.59,-27.39,-27.71,0,*7E
1497035015.59,41960,22.25,74182.3,3.59,-27.39,-27.83,0,*79
1497035016.84,41961,22.25,74182.3,3.61,-27.35,-27.71,0,*72
1497035018.04,41962,22.25,74182.0,3.63,-27.07,-27.51,0,*70
1497035019.28,41963,22.25,74180.3,3.61,-27.39,-27.89,0,*7B
1497035020.51,41964,22.25,74180.8,3.61,-27.55,-27.93,0,*7D
1497035021.76,41965,22.25,74180.0,3.61,-27.55,-28.05,0,*7C
1497035022.98,41966,22.25,74182.3,3.61,-27.51,-27.89,0,*70
1497035024.2,41967,22.25,74182.3,3.61,-27.51,-27.93,0,*7A
1497035025.42,41968,22.25,74180.5,3.59,-27.55,-27.83,0,*7B
1497035026.65,41969,22.25,74180.0,3.61,-27.51,-27.71,0,*78
1497035027.87,41970,22.25,74184.8,3.59,-27.39,-27.77,0,*73
1497035029.12,41971,22.25,74180.8,3.59,-27.45,-27.83,0,*72
1497035030.37,41972,22.25,74186.0,3.59,-27.45,-27.83,0,*71
1497035031.6,41973,22.25,74180.3,3.59,-27.71,-27.99,0,*7C
1497035032.86,41974,22.25,74182.3,3.59,-27.61,-27.99,0,*7A
1497035034.05,41975,22.25,74182.0,3.59,-27.55,-27.93,0,*76
1497035035.31,41976,22.25,74180.8,3.59,-27.61,-27.83,0,*73
1497035036.54,41977,22.25,74184.8,3.59,-27.55,-27.99,0,*7E
1497035037.8,41978,22.25,74180.0,3.59,-27.61,-27.99,0,*76
1497035039.05,41979,22.25,74184.8,3.59,-27.61,-27.83,0,*7C
1497035040.31,41980,22.25,74186.5,3.59,-27.61,-27.83,0,*7A
1497035041.53,41981,22.25,74182.5,3.59,-27.39,-27.71,0,*7B
1497035042.78,41982,22.25,74186.5,3.59,-27.39,-27.61,0,*79
1497035044.01,41983,22.25,74180.3,3.59,-27.29,-27.61,0,*79
1497035045.29,41984,22.25,74182.8,3.57,-27.35,-27.61,0,*7D
1497035046.49,41985,22.25,74182.8,3.59,-27.13,-27.55,0,*71
1497035047.69,41986,22.25,74182.5,3.59,-27.13,-27.55,0,*72
1497035048.89,41987,22.25,74182.5,3.59,-27.29,-27.55,0,*7A
1497035050.11,41988,22.25,74184.3,3.59,-27.39,-27.77,0,*74
1497035051.36,41989,22.25,74186.3,3.59,-27.45,-27.83,0,*75
1497035052.59,41990,22.25,74180.8,3.61,-27.55,-27.89,0,*7D
1497035053.81,41991,22.25,74180.0,3.59,-27.55,-27.83,0,*7D
1497035055.04,41992,22.25,74180.8,3.57,-27.51,-27.89,0,*7E
1497035056.32,41993,22.25,74182.3,3.57,-27.61,-27.83,0,*76
1497035057.61,41994,22.25,74182.0,3.57,-27.61,-27.99,0,*7A
1497035058.84,41995,22.25,74184.0,3.59,-27.55,-27.83,0,*79
1497035060.09,41996,22.25,74184.5,3.59,-27.61,-27.83,0,*7D
1497035061.32,41997,22.25,74180.3,3.59,-27.39,-27.71,0,*7C
1497035062.54,41998,22.25,74184.5,3.59,-27.39,-27.71,0,*73
1497035063.77,41999,22.25,74182.5,3.59,-27.45,-27.77,0,*7F
1497035064.96,42000,22.25,74184.0,3.59,-27.55,-27.93,0,*7E
1497035066.19,42001,22.25,74184.8,3.59,-27.55,-27.83,0,*7E
1497035067.44,42002,22.25,74184.3,3.59,-27.39,-27.83,0,*77
1497035068.66,42003,22.25,74184.8,3.59,-27.45,-27.93,0,*7C
1497035069.92,42004,22.25,74180.8,3.57,-27.61,-27.89,0,*78
1497035071.14,42005,22.25,74186.0,3.59,-27.55,-27.83,0,*7A
1497035072.4,42006,22.25,74182.8,3.59,-27.45,-27.83,0,*78
1497035073.67,42007,22.25,74180.8,3.57,-27.45,-27.83,0,*77
1497035074.9,42008,22.25,74184.5,3.59,-27.39,-27.77,0,*76
1497035076.15,42009,22.25,74182.3,3.59,-27.45,-27.83,0,*77
1497035077.34,42010,22.25,74180.0,3.59,-27.71,-27.93,0,*79
1497035078.57,42011,22.25,74184.3,3.59,-27.55,-27.83,0,*7F
1497035079.82,42012,22.25,74186.5,3.57,-27.45,-27.77,0,*78
1497035081.05,42013,22.25,74182.0,3.59,-27.29,-27.61,0,*7A
1497035082.27,42014,22.25,74184.3,3.59,-27.39,-27.77,0,*7B
1497035083.5,42015,22.25,74182.8,3.59,-27.39,-27.71,0,*7C
1497035084.75,42016,22.25,74182.0,3.59,-27.39,-27.83,0,*72
1497035086.0,42017,22.25,74182.0,3.59,-27.45,-27.61,0,*74
1497035087.23,42018,22.25,74184.5,3.59,-27.07,-27.61,0,*7D
1497035088.46,42019,22.25,74182.5,3.59,-27.29,-27.61,0,*70
1497035089.66,42020,22.25,74186.5,3.59,-27.07,-27.55,0,*71
1497035090.87,42021,22.25,74180.3,3.59,-27.29,-27.71,0,*7A
1497035092.1,42022,22.25,74182.8,3.59,-27.61,-27.77,0,*73
1497035093.33,42023,22.25,74182.0,3.59,-27.61,-27.93,0,*78
1497035094.56,42024,22.25,74182.3,3.59,-27.61,-27.93,0,*7F
1497035095.78,42025,22.25,74180.0,3.59,-27.55,-27.83,0,*78
1497035097.0,42026,22.25,74180.8,3.61,-27.51,-27.89,0,*7E
1497035098.23,42027,22.25,74180.8,3.61,-27.51,-27.89,0,*7F
1497035099.45,42028,22.25,74180.8,3.61,-27.55,-27.93,0,*7F
1497035100.7,42029,22.25,74182.0,3.61,-27.71,-28.05,0,*78
1497035101.95,42030,22.25,74182.3,3.61,-27.67,-28.21,0,*71
1497035103.19,42031,22.25,74182.5,3.57,-27.89,-28.31,0,*74
1497035104.41,42032,22.25,74182.3,3.59,-27.71,-27.99,0,*73
1497035105.64,42033,22.25,74184.8,3.57,-27.51,-27.89,0,*7F
1497035106.89,42034,22.25,74186.0,3.59,-27.45,-27.83,0,*79
1497035108.14,42035,22.25,74186.3,3.61,-27.35,-27.71,0,*79
1497035109.36,42036,22.25,74186.0,3.59,-27.45,-27.77,0,*70
1497035110.58,42037,22.25,74182.5,3.59,-27.45,-27.77,0,*71
1497035111.81,42038,22.25,74184.8,3.59,-27.39,-27.71,0,*73
1497035113.01,42039,22.25,74186.3,3.59,-27.55,-27.77,0,*7E
1497035114.24,42040,22.25,74182.5,3.59,-27.61,-27.93,0,*7D
1497035115.49,42041,22.25,74184.5,3.59,-27.45,-27.83,0,*7B
1497035116.71,42042,22.25,74186.0,3.59,-27.23,-27.55,0,*73
1497035117.93,42043,22.25,74184.8,3.59,-27.23,-27.55,0,*72
1497035119.15,42044,22.19,74182.5,3.59,-27.23,-27.55,0,*75
1497035120.4,42045,22.25,74182.0,3.59,-27.23,-27.45,0,*75
1497035121.66,42046,22.25,74186.0,3.57,-27.29,-27.61,0,*74
1497035122.86,42047,22.25,74182.5,3.59,-27.13,-27.55,0,*75
1497035124.05,42048,22.25,74186.8,3.59,-27.13,-27.55,0,*7A
1497035125.31,42049,22.25,74182.5,3.59,-26.97,-27.39,0,*7C
1497035126.53,42050,22.25,74184.3,3.59,-27.13,-27.45,0,*72
1497035127.72,42051,22.25,74186.0,3.59,-27.13,-27.55,0,*72
1497035128.93,42052,22.25,74184.8,3.63,-27.07,-27.51,0,*79
1497035130.15,42053,22.25,74184.8,3.61,-27.03,-27.51,0,*7E
1497035131.37,42054,22.25,74182.0,3.63,-27.03,-27.39,0,*75
1497035132.62,42055,22.25,74184.5,3.61,-27.07,-27.39,0,*72
1497035133.84,42056,22.25,74184.0,3.63,-27.19,-27.55,0,*76
1497035135.07,42057,22.25,74186.5,3.61,-27.07,-27.51,0,*7E
1497035136.31,42058,22.25,74184.3,3.61,-27.35,-27.55,0,*74
1497035137.53,42059,22.25,74184.0,3.63,-27.23,-27.55,0,*70
1497035138.78,42060,22.25,74186.0,3.61,-27.23,-27.55,0,*78
1497035140.03,42061,22.25,74184.0,3.61,-27.39,-27.71,0,*74
1497035141.25,42062,22.25,74184.8,3.63,-27.35,-27.67,0,*7E
1497035142.5,42063,22.25,74182.8,3.61,-27.39,-27.77,0,*70
1497035143.72,42064,22.25,74186.3,3.63,-27.39,-27.77,0,*75
1497035144.96,42065,22.25,74184.3,3.61,-27.35,-27.71,0,*7C
1497035146.19,42066,22.25,74186.8,3.63,-27.39,-27.67,0,*76
1497035147.41,42067,22.19,74182.5,3.63,-27.39,-27.89,0,*77
1497035148.66,42068,22.25,74184.0,3.61,-27.35,-27.67,0,*76
1497035149.91,42069,22.19,74182.8,3.61,-27.35,-27.67,0,*77
1497035151.15,42070,22.25,74184.3,3.61,-27.23,-27.55,0,*79
1497035152.38,42071,22.19,74182.8,3.63,-27.23,-27.55,0,*7A
1497035153.62,42072,22.25,74184.5,3.61,-27.35,-27.51,0,*78
1497035154.87,42073,22.25,74186.3,3.61,-27.23,-27.55,0,*7A
1497035156.12,42074,22.25,74184.3,3.61,-27.07,-27.39,0,*71
1497035157.37,42075,22.19,74184.8,3.61,-27.23,-27.51,0,*78
1497035158.64,42076,22.25,74184.3,3.61,-26.93,-27.39,0,*7F
1497035159.89,42077,22.25,74184.3,3.61,-27.03,-27.39,0,*76
1497035161.14,42078,22.25,74188.5,3.61,-27.23,-27.55,0,*71
1497035162.38,42079,22.25,74188.5,3.61,-27.35,-27.67,0,*76
1497035163.61,42080,22.25,74186.0,3.61,-27.07,-27.51,0,*74
1497035164.86,42081,22.25,74186.0,3.61,-27.07,-27.39,0,*7B
1497035166.1,42082,22.19,74184.3,3.61,-27.19,-27.55,0,*7D
1497035167.35,42083,22.25,74182.5,3.61,-27.35,-27.71,0,*74
1497035168.55,42084,22.19,74180.8,3.63,-27.51,-27.67,0,*74
1497035169.8,42085,22.19,74184.3,3.61,-27.35,-27.67,0,*75
1497035171.04,42086,22.25,74186.8,3.61,-27.39,-27.77,0,*7B
1497035172.27,42087,22.25,74184.5,3.61,-27.51,-27.89,0,*75
1497035173.49,42088,22.25,74186.0,3.61,-27.67,-27.93,0,*74
1497035174.69,42089,22.25,74186.8,3.63,-27.55,-27.89,0,*7D
1497035175.91,42090,22.19,74182.3,3.61,-27.71,-27.93,0,*7A
1497035177.14,42091,22.25,74184.3,3.63,-27.67,-28.05,0,*7E
1497035178.36,42092,22.25,74184.5,3.61,-27.71,-27.93,0,*78
1497035179.58,42093,22.25,74184.3,3.61,-27.51,-27.77,0,*71
1497035180.8,42094,22.25,74186.5,3.61,-27.55,-27.93,0,*78
1497035182.03,42095,22.25,74186.0,3.61,-27.55,-27.89,0,*72
1497035183.28,42096,22.19,74180.8,3.61,-27.71,-28.05,0,*7C
1497035184.53,42097,22.19,74180.8,3.61,-27.71,-28.05,0,*7D
1497035185.75,42098,22.25,74186.3,3.61,-27.51,-27.71,0,*7C
1497035186.98,42099,22.19,74186.0,3.59,-27.39,-27.71,0,*78
1497035188.2,42100,22.19,74182.8,3.59,-27.45,-27.77,0,*74
1497035189.43,42101,22.25,74186.3,3.59,-27.61,-27.93,0,*79
1497035190.65,42102,22.19,74184.8,3.59,-27.55,-27.83,0,*7C
1497035191.93,42103,22.25,74186.8,3.57,-27.35,-27.61,0,*79
1497035193.16,42104,22.25,74186.0,3.59,-27.45,-27.71,0,*76
1497035194.38,42105,22.25,74186.3,3.57,-27.51,-27.77,0,*7A
1497035195.61,42106,22.19,74184.0,3.59,-27.61,-27.93,0,*7E
1497035196.85,42107,22.25,74188.0,3.57,-27.67,-27.89,0,*7C
1497035198.11,42108,22.25,74188.3,3.57,-27.61,-27.89,0,*75
1497035199.31,42109,22.25,74186.0,3.59,-27.55,-27.71,0,*7A
1497035200.56,42110,22.25,74188.0,3.57,-27.51,-27.83,0,*75
1497035201.76,42111,22.19,74186.0,3.59,-27.55,-27.93,0,*7F
1497035203.02,42112,22.19,74184.3,3.57,-27.67,-28.05,0,*73
1497035204.28,42113,22.19,74184.3,3.57,-27.67,-28.05,0,*72
1497035205.57,42114,22.19,74186.8,3.57,-27.61,-27.99,0,*79
1497035206.83,42115,22.19,74184.8,3.57,-27.61,-27.89,0,*79
1497035208.09,42116,22.19,74184.0,3.57,-27.29,-27.61,0,*70
1497035209.32,42117,22.19,74180.5,3.57,-27.51,-27.77,0,*79
1497035210.58,42118,22.19,74184.0,3.57,-27.29,-27.61,0,*7E
1497035211.83,42119,22.25,74186.5,3.57,-27.51,-27.83,0,*7C
1497035213.09,42120,22.19,74182.5,3.57,-27.67,-27.99,0,*78
1497035214.35,42121,22.19,74184.5,3.57,-27.67,-28.05,0,*73
1497035215.56,42122,22.25,74188.0,3.55,-27.67,-27.89,0,*79
1497035216.78,42123,22.19,74186.0,3.57,-27.51,-27.77,0,*7E
1497035218.07,42124,22.19,74186.0,3.57,-27.45,-27.61,0,*7B
1497035219.3,42125,22.19,74184.5,3.57,-27.29,-27.67,0,*76
1497035220.54,42126,22.19,74186.8,3.57,-27.29,-27.67,0,*75
1497035221.75,42127,22.19,74184.0,3.55,-27.29,-27.67,0,*76
1497035223.0,42128,22.19,74188.0,3.57,-27.35,-27.67,0,*76
1497035224.26,42129,22.19,74188.3,3.57,-27.35,-27.67,0,*77
1497035225.54,42130,22.19,74184.5,3.57,-27.45,-27.61,0,*7E
1497035226.78,42131,22.19,74190.8,3.57,-27.29,-27.67,0,*73
1497035228.0,42132,22.19,74186.8,3.57,-27.51,-27.77,0,*7E
1497035229.23,42133,22.19,74188.5,3.57,-27.29,-27.77,0,*70
1497035230.49,42134,22.19,74186.3,3.57,-27.35,-27.67,0,*7B
1497035231.74,42135,22.19,74190.3,3.57,-27.35,-27.77,0,*7B
1497035232.97,42136,22.19,74188.0,3.57,-27.29,-27.77,0,*75
1497035234.21,42137,22.19,74188.5,3.57,-27.29,-27.67,0,*75
1497035235.49,42138,22.19,74186.5,3.57,-27.45,-27.83,0,*7A
1497035236.75,42139,22.19,74186.3,3.57,-27.67,-27.99,0,*70
1497035238.0,42140,22.25,74188.8,3.57,-27.77,-28.21,0,*73
1497035239.24,42141,22.19,74186.3,3.57,-27.67,-27.89,0,*7E
1497035240.5,42142,22.19,74186.5,3.57,-27.67,-27.99,0,*7C
1497035241.78,42143,22.19,74190.8,3.57,-27.83,-28.21,0,*7B
1497035243.0,42144,22.19,74188.0,3.55,-27.83,-28.15,0,*79
1497035244.21,42145,22.19,74186.0,3.55,-27.77,-28.15,0,*73
1497035245.44,42146,22.19,74190.5,3.55,-27.77,-28.05,0,*71
1497035246.72,42147,22.19,74186.8,3.53,-27.83,-28.21,0,*7B
1497035247.95,42148,22.19,74184.8,3.55,-27.77,-28.05,0,*7F
1497035249.21,42149,22.19,74188.0,3.53,-27.89,-28.09,0,*75
1497035250.47,42150,22.19,74188.3,3.55,-27.61,-27.83,0,*70
1497035251.7,42151,22.19,74190.0,3.55,-27.67,-28.05,0,*76
1497035252.96,42152,22.19,74190.5,3.53,-27.71,-28.05,0,*74
1497035254.21,42153,22.25,74192.0,3.53,-27.89,-28.21,0,*74
1497035255.48,42154,22.19,74186.3,3.55,-27.61,-27.99,0,*7F
1497035256.74,42155,22.19,74188.5,3.53,-27.67,-28.05,0,*74
1497035257.97,42156,22.19,74186.8,3.55,-27.51,-27.83,0,*75
1497035259.22,42157,22.19,74188.5,3.53,-27.55,-28.05,0,*77
1497035260.47,42158,22.19,74186.5,3.53,-27.51,-27.83,0,*7D
1497035261.71,42159,22.19,74186.0,3.53,-27.55,-27.89,0,*72
1497035262.96,42160,22.19,74186.0,3.53,-27.71,-28.09,0,*79
1497035264.22,42161,22.19,74186.0,3.53,-27.89,-28.25,0,*71
1497035265.49,42162,22.19,74186.3,3.53,-27.83,-28.09,0,*76
1497035266.77,42163,22.19,74188.8,3.53,-27.83,-28.25,0,*79
1497035268.02,42164,22.19,74186.5,3.51,-27.83,-28.09,0,*72
1497035269.27,42165,22.19,74184.5,3.51,-27.83,-28.05,0,*7F
1497035270.5,42166,22.19,74188.0,3.51,-27.89,-28.25,0,*74
1497035271.75,42167,22.19,74188.0,3.51,-27.83,-28.09,0,*71
1497035272.98,42168,22.19,74190.5,3.51,-27.89,-28.21,0,*7E
1497035274.21,42169,22.19,74186.5,3.51,-27.89,-28.25,0,*7B
1497035275.41,42170,22.19,74190.3,3.51,-27.55,-27.93,0,*70
1497035276.64,42171,22.19,74188.5,3.51,-27.71,-27.99,0,*7D
1497035277.84,42172,22.19,74190.0,3.51,-27.55,-27.93,0,*72
1497035279.07,42173,22.19,74186.8,3.51,-27.71,-28.05,0,*75
1497035280.31,42174,22.19,74188.0,3.51,-27.67,-28.05,0,*75
1497035281.53,42175,22.19,74190.0,3.51,-27.71,-28.09,0,*7F
1497035282.79,42176,22.19,74190.3,3.49,-27.77,-27.99,0,*75
1497035284.04,42177,22.19,74190.5,3.51,-27.83,-28.09,0,*70
1497035285.24,42178,22.19,74190.0,3.51,-27.67,-27.93,0,*79
1497035286.48,42179,22.19,74188.3,3.51,-27.71,-27.99,0,*75
1497035287.71,42180,22.19,74188.5,3.49,-27.77,-28.15,0,*77
1497035288.97,42181,22.19,74186.0,3.49,-27.71,-28.09,0,*7D
1497035290.25,42182,22.19,74188.5,3.49,-27.61,-27.99,0,*79
1497035291.48,42183,22.19,74188.0,3.49,-27.55,-27.89,0,*7E
1497035292.69,42184,22.19,74188.3,3.51,-27.55,-27.89,0,*70
1497035293.95,42185,22.19,74186.3,3.49,-27.77,-27.99,0,*79
1497035295.18,42186,22.19,74188.8,3.49,-27.89,-28.15,0,*70
1497035296.41,42187,22.19,74188.0,3.51,-27.89,-28.09,0,*75
1497035297.67,42188,22.19,74188.0,3.49,-27.93,-28.25,0,*76
1497035298.92,42189,22.19,74188.0,3.49,-27.89,-28.09,0,*72
1497035300.18,42190,22.19,74188.8,3.45,-27.99,-28.31,0,*7C
1497035301.41,42191,22.19,74188.3,3.45,-27.93,-28.31,0,*77
1497035302.64,42192,22.19,74188.3,3.45,-27.93,-28.31,0,*74